DW2047 Weather Reports


time (UTC)temp
F
wind
direction
speed
knots
gust
knots
rain 1hr
in
rain 24hr
in
rain mn
in
humidity
%
barometer
mb
20260505185525 82 145 5.2 0.0 0.00 0.00 0.00 72 1007.0
20260505185102 82 128 4.3 0.0 0.00 0.00 0.00 71 1007.1
20260505184550 82 169 3.5 0.0 0.00 0.00 0.00 70 1007.2
20260505184025 82 232 3.5 0.0 0.00 0.00 0.00 72 1007.3
20260505183605 82 159 3.5 0.0 0.00 0.00 0.00 71 1007.3
20260505183113 82 145 2.6 0.0 0.00 0.00 0.00 71 1007.6
20260505182533 81 134 2.6 0.0 0.00 0.00 0.00 73 1007.7
20260505182002 81 135 3.5 0.0 0.00 0.00 0.00 73 1007.9
20260505181553 81 142 3.5 0.0 0.00 0.00 0.00 74 1007.9
20260505181029 80 166 4.3 0.0 0.00 0.00 0.00 74 1007.9
20260505180502 79 180 4.3 0.0 0.00 0.00 0.00 75 1007.9
20260505180006 79 138 4.3 0.0 0.00 0.00 0.00 76 1008.0
20260505175542 78 161 4.3 0.0 0.00 0.00 0.00 77 1007.9
20260505175018 78 151 4.3 0.0 0.00 0.00 0.00 76 1008.2
20260505174520 78 129 3.5 0.0 0.00 0.00 0.00 77 1008.3
20260505174104 78 175 2.6 0.0 0.00 0.00 0.00 78 1008.3
20260505173536 77 123 2.6 0.0 0.00 0.00 0.00 80 1008.3
20260505173049 77 186 3.5 0.0 0.00 0.00 0.00 79 1008.3
20260505172512 77 219 3.5 0.0 0.00 0.00 0.00 79 1008.3
20260505172051 77 175 2.6 0.0 0.00 0.00 0.00 81 1008.3
20260505171601 76 130 2.6 0.0 0.00 0.00 0.00 81 1008.3
20260505171032 76 190 3.5 0.0 0.00 0.00 0.00 83 1008.4
20260505170607 76 149 2.6 0.0 0.00 0.00 0.00 82 1008.3
20260505170015 75 133 2.6 0.0 0.00 0.00 0.00 83 1008.4
20260505165544 75 250 3.5 0.0 0.00 0.00 0.00 83 1008.4
20260505165025 75 205 2.6 0.0 0.00 0.00 0.00 83 1008.4
20260505164527 75 145 2.6 0.0 0.00 0.00 0.00 84 1008.4
20260505164106 75 213 2.6 0.0 0.00 0.00 0.00 85 1008.4
20260505163536 74 142 2.6 0.0 0.00 0.00 0.00 84 1008.4
20260505163040 74 198 2.6 0.0 0.00 0.00 0.00 84 1008.5
20260505162512 74 132 2.6 0.0 0.00 0.00 0.00 85 1008.5
20260505162051 74 133 3.5 0.0 0.00 0.00 0.00 85 1008.5
20260505161551 74 276 3.5 0.0 0.00 0.00 0.00 85 1008.5
20260505161020 74 151 2.6 0.0 0.00 0.00 0.00 86 1008.5
20260505160602 73 137 2.6 0.0 0.00 0.00 0.00 86 1008.4
20260505153025 72 142 3.5 0.0 0.00 0.00 0.00 87 1008.3
20260505152500 72 140 2.6 0.0 0.00 0.00 0.00 87 1008.4
20260505152040 72 172 2.6 0.0 0.00 0.00 0.00 87 1008.4
20260505151536 72 146 3.5 0.0 0.00 0.00 0.00 88 1008.5
20260505151010 72 126 3.5 0.0 0.00 0.00 0.00 87 1008.5
20260505150549 72 147 2.6 0.0 0.00 0.00 0.00 88 1008.4
20260505140505 71 135 3.5 0.0 0.00 0.00 0.00 88 1007.9
20260505125005 71 186 2.6 0.0 0.00 0.00 0.00 88 1007.4
20260505124511 70 157 2.6 0.0 0.00 0.00 0.00 89 1007.4
20260505124050 70 180 3.5 0.0 0.00 0.00 0.00 89 1007.4
20260505123522 70 150 3.5 0.0 0.00 0.00 0.00 89 1007.3
20260505123024 70 180 3.5 0.0 0.00 0.00 0.00 89 1007.1
20260505122603 70 144 3.5 0.0 0.00 0.00 0.00 89 1007.1
20260505122036 70 150 3.5 0.0 0.00 0.00 0.00 89 1006.9
20260505121540 70 185 3.5 0.0 0.00 0.00 0.00 89 1006.8
20260505121011 70 150 3.5 0.0 0.00 0.00 0.00 89 1006.8
20260505120544 70 149 3.5 0.0 0.00 0.00 0.00 89 1006.7
20260505120057 70 155 4.3 0.0 0.00 0.00 0.00 89 1006.6
20260505115511 70 138 3.5 0.0 0.00 0.00 0.00 89 1006.6
20260505115048 70 148 4.3 0.0 0.00 0.00 0.00 89 1006.6
20260505114550 70 183 3.5 0.0 0.00 0.00 0.00 89 1006.5
20260505114023 70 141 3.5 0.0 0.00 0.00 0.00 89 1006.6
20260505113558 70 147 3.5 0.0 0.00 0.00 0.00 88 1006.6
20260505113048 70 146 3.5 0.0 0.00 0.00 0.00 88 1006.7
20260505112523 70 140 2.6 0.0 0.00 0.00 0.00 88 1006.7
20260505112055 70 146 3.5 0.0 0.00 0.00 0.00 88 1006.6
20260505111600 70 134 3.5 0.0 0.00 0.00 0.00 88 1006.6
20260505111030 71 142 3.5 0.0 0.00 0.00 0.00 88 1006.7
20260505110502 71 178 3.5 0.0 0.00 0.00 0.00 88 1006.6
20260505102026 70 153 3.5 0.0 0.00 0.00 0.00 88 1006.7
20260505101532 70 136 3.5 0.0 0.00 0.00 0.00 88 1006.9
20260505101005 70 162 3.5 0.0 0.00 0.00 0.00 88 1006.8
20260505100543 70 135 3.5 0.0 0.00 0.00 0.00 88 1006.9
20260505100035 70 153 3.5 0.0 0.00 0.00 0.00 88 1007.0
20260505095511 70 145 3.5 0.0 0.00 0.00 0.00 88 1007.0
20260505095050 70 142 3.5 0.0 0.00 0.00 0.00 88 1007.1
20260505094555 71 155 3.5 0.0 0.00 0.00 0.00 88 1007.0
20260505094034 71 141 3.5 0.0 0.00 0.00 0.00 88 1007.1
20260505093504 71 148 3.5 0.0 0.00 0.00 0.00 88 1007.1
20260505093006 70 173 3.5 0.0 0.00 0.00 0.00 88 1007.1
20260505092548 70 148 3.5 0.0 0.00 0.00 0.00 87 1007.1
20260505092018 70 150 3.5 0.0 0.00 0.00 0.00 87 1007.2
20260505091526 70 143 3.5 0.0 0.00 0.00 0.00 87 1007.2
20260505091102 71 146 4.3 0.0 0.00 0.00 0.00 87 1007.3
20260505090533 71 140 4.3 0.0 0.00 0.00 0.00 87 1007.5
20260505090045 71 167 4.3 0.0 0.00 0.00 0.00 87 1007.5
20260505085515 71 142 3.5 0.0 0.00 0.00 0.00 87 1007.3
20260505085052 71 160 3.5 0.0 0.00 0.00 0.00 87 1007.5
20260505084556 71 133 3.5 0.0 0.00 0.00 0.00 87 1007.4
20260505084032 71 121 3.5 0.0 0.00 0.00 0.00 87 1007.4
20260505083504 71 159 3.5 0.0 0.00 0.00 0.00 87 1007.4
20260505083007 71 135 3.5 0.0 0.00 0.00 0.00 87 1007.4
20260505082545 71 134 4.3 0.0 0.00 0.00 0.00 86 1007.4
20260505082018 71 137 4.3 0.0 0.00 0.00 0.00 86 1007.6
20260505081519 71 141 4.3 0.0 0.00 0.00 0.00 86 1007.6
20260505081102 71 121 4.3 0.0 0.00 0.00 0.00 86 1007.8
20260505080533 71 163 4.3 0.0 0.00 0.00 0.00 86 1007.7
20260505080038 71 130 4.3 0.0 0.00 0.00 0.00 86 1007.8
20260505075602 71 131 4.3 0.0 0.00 0.00 0.00 86 1007.8
20260505075035 71 126 3.5 0.0 0.00 0.00 0.00 86 1007.8
20260505074541 71 153 4.3 0.0 0.00 0.00 0.00 86 1007.8
20260505074014 71 155 5.2 0.0 0.00 0.00 0.00 86 1007.9
20260505073549 71 149 4.3 0.0 0.00 0.00 0.00 86 1007.9
20260505073110 71 167 4.3 0.0 0.00 0.00 0.00 86 1007.9
20260505072527 71 275 4.3 0.0 0.00 0.00 0.00 86 1008.0
20260505072106 71 186 5.2 0.0 0.00 0.00 0.00 86 1008.0
20260505071516 71 132 5.2 0.0 0.00 0.00 0.00 86 1008.2
20260505071049 71 184 5.2 0.0 0.00 0.00 0.00 86 1008.2
20260505070524 71 170 4.3 0.0 0.00 0.00 0.00 86 1008.3
20260505070029 71 139 5.2 0.0 0.00 0.00 0.00 86 1008.4
20260505065505 71 151 5.2 0.0 0.00 0.00 0.00 86 1008.4
20260505065042 71 168 5.2 0.0 0.00 0.00 0.00 85 1008.6
20260505064544 71 123 5.2 0.0 0.00 0.00 0.00 85 1008.5
20260505064021 71 160 5.2 0.0 0.00 0.00 0.00 85 1008.6
20260505063600 71 129 5.2 0.0 0.00 0.00 0.00 85 1008.5
20260505063048 71 162 4.3 0.0 0.00 0.00 0.00 85 1008.5
20260505062521 71 158 5.2 0.0 0.00 0.00 0.00 85 1008.6
20260505062059 71 200 5.2 0.0 0.00 0.00 0.00 85 1008.7
20260505061553 71 123 5.2 0.0 0.00 0.00 0.00 85 1008.7
20260505061023 71 157 4.3 0.0 0.00 0.00 0.00 85 1008.7
20260505060605 71 142 4.3 0.0 0.00 0.00 0.00 85 1008.8
20260505060003 72 146 6.1 0.0 0.00 0.00 0.00 85 1008.8
20260505055541 72 183 7.0 0.0 0.00 0.00 0.00 85 1008.6
20260505055014 72 157 7.0 0.0 0.00 0.00 0.00 85 1008.8
20260505054527 72 213 6.1 0.0 0.00 0.00 0.00 85 1008.7
20260505054057 72 134 6.1 0.0 0.00 0.00 0.00 84 1008.8
20260505053534 72 143 6.1 0.0 0.00 0.00 0.00 84 1008.7
20260505053046 72 268 6.1 0.0 0.00 0.00 0.00 84 1008.6
20260505052511 72 141 6.1 0.0 0.00 0.00 0.00 84 1008.6
20260505052050 72 144 6.1 0.0 0.00 0.00 0.00 84 1008.6
20260505051553 72 131 6.1 0.0 0.00 0.00 0.00 84 1008.6
20260505051028 72 196 6.1 0.0 0.00 0.00 0.00 84 1008.7
20260505050601 72 148 6.1 0.0 0.00 0.00 0.00 84 1008.7
20260505041556 73 145 3.5 0.0 0.00 0.00 0.00 82 1008.8
20260505041025 73 142 3.5 0.0 0.00 0.00 0.00 81 1008.8
20260505040603 73 155 4.3 0.0 0.00 0.00 0.00 81 1008.8
20260505040048 73 189 4.3 0.0 0.00 0.00 0.00 81 1008.8
20260505035520 74 169 3.5 0.0 0.00 0.00 0.00 80 1008.8
20260505035103 74 153 3.5 0.0 0.00 0.00 0.00 79 1008.8
20260505034551 74 151 3.5 0.0 0.00 0.00 0.00 79 1008.8
20260505034025 74 143 4.3 0.0 0.00 0.00 0.00 79 1008.8
20260505033603 74 130 4.3 0.0 0.00 0.00 0.00 79 1008.8
20260505033052 74 141 4.3 0.0 0.00 0.00 0.00 79 1008.8
20260505032529 74 143 4.3 0.0 0.00 0.00 0.00 79 1008.7
20260505032001 74 148 4.3 0.0 0.00 0.00 0.00 78 1008.6
20260505031517 75 139 4.3 0.0 0.00 0.00 0.00 77 1008.7
20260505031041 75 163 4.3 0.0 0.00 0.00 0.00 77 1008.7
20260505030514 75 142 4.3 0.0 0.00 0.00 0.00 77 1008.7
20260505030003 75 169 4.3 0.0 0.00 0.00 0.00 76 1008.6
20260505025542 75 140 4.3 0.0 0.00 0.00 0.00 75 1008.5
20260505025014 75 155 4.3 0.0 0.00 0.00 0.00 75 1008.6
20260505024530 75 143 4.3 0.0 0.00 0.00 0.00 74 1008.6
20260505024059 75 146 2.6 0.0 0.00 0.00 0.00 73 1008.6
20260505023529 75 151 2.6 0.0 0.00 0.00 0.00 72 1008.6
20260505023034 76 144 2.6 0.0 0.00 0.00 0.00 72 1008.5
20260505022503 76 165 2.6 0.0 0.00 0.00 0.00 72 1008.6
20260505022046 76 186 2.6 0.0 0.00 0.00 0.00 71 1008.5
20260505021549 76 165 2.6 0.0 0.00 0.00 0.00 71 1008.5
20260505021022 76 160 4.3 0.0 0.00 0.00 0.00 71 1008.4
20260505020558 76 156 4.3 0.0 0.00 0.00 0.00 70 1008.3
20260505020049 76 167 4.3 0.0 0.00 0.00 0.00 70 1008.2
20260505015525 76 159 3.5 0.0 0.00 0.00 0.00 70 1008.3
20260505015106 76 189 3.5 0.0 0.00 0.00 0.00 70 1008.3
20260505014601 76 147 2.6 0.0 0.00 0.00 0.00 69 1008.4
20260505014025 76 153 3.5 0.0 0.00 0.00 0.00 69 1008.4
20260505013606 76 150 3.5 0.0 0.00 0.00 0.00 68 1008.4
20260505013105 77 137 2.6 0.0 0.00 0.00 0.00 68 1008.5
20260505012525 77 140 2.6 0.0 0.00 0.00 0.00 67 1008.4
20260505012101 77 144 2.6 0.0 0.00 0.00 0.00 66 1008.4
20260505011548 77 200 3.5 0.0 0.00 0.00 0.00 66 1008.4
20260505011018 77 140 4.3 0.0 0.00 0.00 0.00 65 1008.3
20260505010604 78 138 4.3 0.0 0.00 0.00 0.00 65 1008.4
20260505010051 78 140 2.6 0.0 0.00 0.00 0.00 64 1008.4
20260505005524 78 189 3.5 0.0 0.00 0.00 0.00 64 1008.4
20260505005104 78 158 3.5 0.0 0.00 0.00 0.00 64 1008.4
20260505004555 79 142 4.3 0.0 0.00 0.00 0.00 64 1008.4
20260505004028 79 202 5.2 0.0 0.00 0.00 0.00 64 1008.4
20260505003608 79 190 4.3 0.0 0.00 0.00 0.00 64 1008.3
20260505003005 79 142 3.5 0.0 0.00 0.00 0.00 64 1008.4
20260505002543 79 130 4.3 0.0 0.00 0.00 0.00 64 1008.3
20260505002022 79 138 4.3 0.0 0.00 0.00 0.00 63 1008.3
20260505001519 79 145 4.3 0.0 0.00 0.00 0.00 63 1008.2
20260505001057 79 169 5.2 0.0 0.00 0.00 0.00 63 1008.3
20260505000532 80 142 7.0 0.0 0.00 0.00 0.00 62 1008.2
20260505000055 80 179 7.0 0.0 0.00 0.00 0.00 61 1008.2
20260504235506 81 144 5.2 0.0 0.00 0.00 0.00 61 1008.3
20260504235042 81 140 5.2 0.0 0.00 0.00 0.00 61 1008.3
20260504234531 81 139 5.2 0.0 0.00 0.00 0.00 61 1008.3
20260504234006 81 132 6.1 0.0 0.00 0.00 0.00 61 1008.3
20260504233543 81 148 6.1 0.0 0.00 0.00 0.00 61 1008.4
20260504233036 81 142 5.2 0.0 0.00 0.00 0.00 61 1008.5
20260504232514 81 149 6.1 0.0 0.00 0.00 0.00 60 1008.6
20260504232047 81 161 6.1 0.0 0.00 0.00 0.00 59 1008.6
20260504231536 82 168 4.3 0.0 0.00 0.00 0.00 59 1008.6
20260504231008 82 169 5.2 0.0 0.00 0.00 0.00 58 1008.6
20260504230548 82 157 5.2 0.0 0.00 0.00 0.00 59 1008.6
20260504225523 82 157 5.2 0.0 0.00 0.00 0.00 58 1008.7
20260504225101 83 142 5.2 0.0 0.00 0.00 0.00 58 1008.8
20260504224550 83 170 5.2 0.0 0.00 0.00 0.00 57 1008.7
20260504224022 83 234 6.1 0.0 0.00 0.00 0.00 58 1008.9
20260504223604 83 146 6.1 0.0 0.00 0.00 0.00 57 1008.9
20260504223002 83 98 5.2 0.0 0.00 0.00 0.00 58 1009.0
20260504222540 83 147 5.2 0.0 0.00 0.00 0.00 57 1009.1
20260504222009 82 182 6.1 0.0 0.00 0.00 0.00 59 1009.1
20260504221517 82 148 7.0 0.0 0.00 0.00 0.00 58 1009.1
20260504221056 82 145 7.0 0.0 0.00 0.00 0.00 58 1009.2
20260504220532 82 155 7.0 0.0 0.00 0.00 0.00 58 1009.2
20260504220040 82 115 7.0 0.0 0.00 0.00 0.00 59 1009.2
20260504215511 83 188 5.2 0.0 0.00 0.00 0.00 58 1009.3
20260504215051 82 150 5.2 0.0 0.00 0.00 0.00 59 1009.4
20260504214557 82 138 7.0 0.0 0.00 0.00 0.00 59 1009.4
20260504214029 82 112 7.0 0.0 0.00 0.00 0.00 58 1009.3
20260504213501 82 152 7.0 0.0 0.00 0.00 0.00 59 1009.4
20260504213102 82 191 6.1 0.0 0.00 0.00 0.00 58 1009.4
20260504212529 82 153 5.2 0.0 0.00 0.00 0.00 59 1009.7
20260504212008 82 132 6.1 0.0 0.00 0.00 0.00 59 1009.8
20260504211619 82 134 5.2 0.0 0.00 0.00 0.00 59 1009.9
20260504211034 82 132 5.2 0.0 0.00 0.00 0.00 58 1010.0
20260504210507 82 188 5.2 0.0 0.00 0.00 0.00 58 1010.3
20260504205539 82 140 7.0 0.0 0.00 0.00 0.00 59 1010.3
20260504205010 81 173 6.1 0.0 0.00 0.00 0.00 60 1010.5
20260504204514 81 163 6.1 0.0 0.00 0.00 0.00 59 1010.5
20260504204052 81 104 6.1 0.0 0.00 0.00 0.00 59 1010.7
20260504203529 81 146 6.1 0.0 0.00 0.00 0.00 59 1010.7
20260504203034 81 132 7.0 0.0 0.00 0.00 0.00 59 1010.7
20260504202511 82 183 5.2 0.0 0.00 0.00 0.00 58 1010.8
20260504202043 82 149 5.2 0.0 0.00 0.00 0.00 59 1011.0
20260504201549 81 141 5.2 0.0 0.00 0.00 0.00 59 1011.0
20260504201018 81 149 4.3 0.0 0.00 0.00 0.00 59 1011.1
20260504200553 81 138 4.3 0.0 0.00 0.00 0.00 59 1011.2
20260504200059 81 180 5.2 0.0 0.00 0.00 0.00 59 1011.4
20260504195535 80 138 5.2 0.0 0.00 0.00 0.00 59 1011.3
20260504195011 80 146 5.2 0.0 0.00 0.00 0.00 61 1011.5
20260504194515 80 194 5.2 0.0 0.00 0.00 0.00 60 1011.7
20260504194054 80 171 6.1 0.0 0.00 0.00 0.00 60 1011.8
20260504193526 80 143 5.2 0.0 0.00 0.00 0.00 60 1011.8
20260504193029 80 141 5.2 0.0 0.00 0.00 0.00 61 1011.7
20260504192504 80 205 5.2 0.0 0.00 0.00 0.00 61 1012.0
20260504192047 80 139 5.2 0.0 0.00 0.00 0.00 61 1012.0
20260504191541 80 163 5.2 0.0 0.00 0.00 0.00 60 1012.2
20260504191017 80 205 5.2 0.0 0.00 0.00 0.00 62 1012.2
20260504190556 79 215 5.2 0.0 0.00 0.00 0.00 62 1012.2
20260504190045 78 188 5.2 0.0 0.00 0.00 0.00 62 1012.3